AEHF-5 (USA 292)

Last updated on Tue Sep 22 2026 00:03:15 GMT+0000 (Coordinated Universal Time)

1 44481U 19051A 26264.60442036 -.00000261 00000+0 00000+0 0 9990 2 44481 1.3897 344.1665 0029014 11.3442 315.6600 1.00271165 26227
UTC large
Height (km)
Speed (km/s)
/
Latitude / Longitude
Inclination (degrees)
Orbital Period (minutes)
Azimuth
Elevation
Range (km)
Doppler Factor

Next 0 passes for location: London (51.5072 / 0.1276)

No passes found over London.
AEHF-5 (USA 292)